Terminal Aerodrome Forecast
Issued by NWS

Home | Current Version | Previous Version | Text Only | Print | Product List | Glossary On
Versions: 1 2 3 4 5 6 7 8 9 10 11 12 13 14 15 16 17 18 19
000
FTUS45 KRIW 290300 AAA
TAFCPR
TAF AMD
KCPR 290322Z 2903/2924 05010KT P6SM VCSH OVC008
     FM290800 04006KT 4SM SHRA BR SCT008 OVC020
     FM291600 VRB06KT P6SM SCT015 OVC045=

USA.gov is the U.S. government's official web portal to all federal, state and local government web resources and services.